Richmond, VA

4:09 AM EDT on August 28, 2016 (GMT -0400)
Richmond International

Weather History for KRIC - September, 2013

Change the Weather History Date:

Sunday, September 22, 2013

  Actual Average Record
Temperature  
Mean Temperature 70 °F 68 °F  
Max Temperature 79 °F 79 °F 97 °F (1980)
Min Temperature 60 °F 58 °F 40 °F (1962)
Degree Days  
Heating Degree Days 0 1  
Month to date heating degree days 6 9  
Since 1 July heating degree days 6 10  
Cooling Degree Days 5 5  
Month to date cooling degree days 187 168  
Year to date cooling degree days 1592 1475  
Growing Degree Days 20 (Base 50)    
Moisture  
Dew Point 58 °F    
Average Humidity 67    
Maximum Humidity 93    
Minimum Humidity 40    
Precipitation  
Precipitation 0.04 in 0.13 in 2.68 in (1994)
Month to date precipitation 1.39 3.12  
Year to date precipitation 40.26 33.11  
Snow  
Snow 0.00 in 0.00 in 0.00 in (2002)
Month to date snowfall 0.0 0.0  
Since 1 July snowfall 0.0 0.0  
Snow Depth 0.00 in    
Sea Level Pressure  
Sea Level Pressure 29.82 in    
Wind  
Wind Speed 9 mph (North)    
Max Wind Speed 16 mph    
Max Gust Speed 22 mph    
Visibility 9 miles    
Events Rain    
T = Trace of Precipitation, MM = Missing Value Source: NWS Daily Summary

Daily Weather History Graph

Daily Weather History Graph

Search for Another Location

Airport or City:

Trip Planner

Search our weather history database for the weather conditions in past years. The results will help you decide how hot, cold, wet, or windy it might be!

Date:

Astronomy

Sep. 22, 2013 Rise Set
Actual Time 6:57 AM EDT 7:05 PM EDT
Civil Twilight 6:31 AM EDT 7:31 PM EDT
Nautical Twilight 6:00 AM EDT 8:02 PM EDT
Astronomical Twilight 5:29 AM EDT 8:33 PM EDT
Moon 8:59 PM EDT (9/22) 10:10 AM EDT (9/22)
Length of Visible Light 13h 00m
Length of Day
12h 08m
Waning Gibbous, 89% of the Moon is Illuminated
Sep 22
Waning Gibbous
Sep 26
Last Quarter
Oct 4
New
Oct 11
First Quarter
Oct 18
Full

Hourly Weather History & Observations

Time (EDT) Temp. Dew Point Humidity Pressure Visibility Wind Dir Wind Speed Gust Speed Precip Events Conditions
12:00 AM 66.2 °F 64.4 °F 94% 29.75 in 3.0 mi Calm Calm - 0.00 in Rain Light Rain
12:40 AM 68.0 °F 64.4 °F 88% 29.74 in 4.0 mi Calm Calm - 0.05 in Rain Rain
12:54 AM 68.0 °F 66.0 °F 93% 29.75 in 2.0 mi Calm Calm - 0.10 in Rain Rain
1:36 AM 66.2 °F 62.6 °F 88% 29.75 in 5.0 mi NNE 10.4 mph - 0.05 in Rain Light Rain
1:54 AM 66.0 °F 63.0 °F 90% 29.76 in 10.0 mi NNE 5.8 mph - 0.05 in   Overcast
2:54 AM 66.0 °F 63.0 °F 90% 29.76 in 10.0 mi North 4.6 mph - N/A   Overcast
3:54 AM 66.0 °F 63.0 °F 90% 29.76 in 10.0 mi NNW 4.6 mph - N/A   Overcast
4:54 AM 64.0 °F 61.0 °F 90% 29.77 in 10.0 mi NNW 4.6 mph - N/A   Scattered Clouds
5:54 AM 63.0 °F 61.0 °F 93% 29.79 in 10.0 mi North 6.9 mph - N/A   Partly Cloudy
6:54 AM 62.1 °F 60.1 °F 93% 29.81 in 10.0 mi NNW 8.1 mph - N/A   Scattered Clouds
7:54 AM 63.0 °F 59.0 °F 87% 29.82 in 10.0 mi North 9.2 mph - N/A   Scattered Clouds
8:54 AM 66.0 °F 59.0 °F 78% 29.84 in 10.0 mi North 11.5 mph - N/A   Partly Cloudy
9:54 AM 69.1 °F 59.0 °F 70% 29.85 in 10.0 mi North 13.8 mph - N/A   Partly Cloudy
10:54 AM 72.0 °F 59.0 °F 64% 29.85 in 10.0 mi North 11.5 mph - N/A   Partly Cloudy
11:54 AM 73.9 °F 57.0 °F 55% 29.85 in 10.0 mi North 12.7 mph 16.1 mph N/A   Partly Cloudy
12:54 PM 75.9 °F 55.9 °F 50% 29.85 in 10.0 mi North 10.4 mph 18.4 mph N/A   Scattered Clouds
1:54 PM 77.0 °F 54.0 °F 45% 29.83 in 10.0 mi North 12.7 mph - N/A   Scattered Clouds
2:54 PM 77.0 °F 53.1 °F 43% 29.83 in 10.0 mi North 8.1 mph - N/A   Scattered Clouds
3:54 PM 77.0 °F 52.0 °F 42% 29.82 in 10.0 mi NNE 11.5 mph 18.4 mph N/A   Scattered Clouds
4:54 PM 75.9 °F 53.1 °F 45% 29.83 in 10.0 mi NNE 6.9 mph - N/A   Scattered Clouds
5:54 PM 73.9 °F 54.0 °F 50% 29.84 in 10.0 mi North 10.4 mph - N/A   Scattered Clouds
6:54 PM 70.0 °F 54.0 °F 57% 29.86 in 10.0 mi North 10.4 mph - N/A   Scattered Clouds
7:54 PM 66.9 °F 55.0 °F 66% 29.88 in 10.0 mi NNE 3.5 mph - N/A   Partly Cloudy
8:54 PM 64.0 °F 55.9 °F 75% 29.89 in 10.0 mi NNE 3.5 mph - N/A   Partly Cloudy
9:54 PM 62.1 °F 55.0 °F 78% 29.91 in 10.0 mi North 3.5 mph - N/A   Clear
10:54 PM 62.1 °F 55.0 °F 78% 29.92 in 10.0 mi North 10.4 mph - N/A   Scattered Clouds
11:54 PM 61.0 °F 52.0 °F 72% 29.94 in 10.0 mi North 12.7 mph - N/A   Partly Cloudy